Miscellaneous Local Product
Issued by NWS North Platte, NE

Home | Current Version | Previous Version | Text Only | Print | Product List | Glossary On
Versions: 1 2 3 4 5 6 7 8 9 10 11 12 13 14 15 16 17 18 19 20 21 22 23 24 25 26 27 28 29 30 31 32 33 34 35 36 37 38 39 40 41 42 43 44 45 46 47 48 49 50
701
AXUS43 KLBF 082310
MISLBF


WESTERN AND NORTH CENTRAL NEBRASKA HOURLY WEATHER ROUNDUP
NATIONAL WEATHER SERVICE NORTH PLATTE NE
500 PM CST MON FEB 08 2016

NOTE: "FAIR" INDICATES FEW OR NO CLOUDS BELOW 12,000 FEET WITH NO
SIGNIFICANT WEATHER AND/OR OBSTRUCTIONS TO VISIBILITY.

NOTE: STATIONS NOT REPORTING VARIABLES SUCH AS SKY/WEATHER OR
PRESSURE ARE PROVIDED BY THE NEBRASKA DEPARTMENT OF
ROADS...RAWS...AND APRS NETWORKS...AND ARE NOT UNDER
NATIONAL WEATHER SERVICE QUALITY CONTROL.

...OBSERVATIONS IN AND NEAR THE EASTERN PANHANDLE OF NEBRASKA...

CITY           SKY/WX    TMP DP  RH WIND       PRES   REMARKS
PINE RIDGE     CLOUDY    39   9  29 N9        30.27S WCI  33
CHADRON        CLOUDY    41  23  48 W10       30.27F
ALLIANCE       CLOUDY    36  24  62 NW8       30.25F WCI  30
SIDNEY         CLOUDY    39  27  62 NW15      30.27F WCI  31
CRESCENT LAKE    N/A     37  18  47 N10G20      N/A  WCI  30
BIG SPRINGS      N/A     38  26  61 NW3         N/A
$$

...OBSERVATIONS IN NORTH CENTRAL NEBRASKA...

CITY           SKY/WX    TMP DP  RH WIND       PRES   REMARKS
VALENTINE      CLOUDY    35  16  45 NW17G24   30.23S WCI  25
THEDFORD       MOSUNNY   38  11  33 NW23G29   30.23R WCI  27
AINSWORTH      CLEAR     35  13  40 NW30G36   30.20F WCI  22
O`NEILL        PTCLDY    33  19  57 NW29      30.18S WCI  19
ORD            CLEAR     33  17  51 NW22G35   30.18R WCI  21
BROKEN BOW     CLEAR     35  13  40 N26G35    30.19S WCI  22
VALENTINE NWR    N/A     35  11  37 NW21G31     N/A  WCI  24
BUTTE            N/A     33  20  58 NW20G31     N/A  WCI  21
HALSEY           N/A     37  11  34 NW13G26     N/A  WCI  29
CHAMBERS         N/A     33  16  49 W12G20      N/A  WCI  24
EWING            N/A     33  22  63 NW12G20     N/A  WCI  24
$$

...OBSERVATIONS IN SOUTHWEST NEBRASKA AND FAR NORTHEAST COLORADO...

CITY           SKY/WX    TMP DP  RH WIND       PRES   REMARKS
WRAY           CLOUDY    39  28  64 NW14      30.29F WCI  31
HOLYOKE        FAIR      41  28  60 NW17      30.27F
IMPERIAL       CLOUDY    36  19  50 NW17      30.27F WCI  26
OGALLALA       CLOUDY    37  19  48 NW12      30.27S WCI  29
NORTH PLATTE   CLOUDY    35  16  45 NW14      30.25S WCI  26
MCCOOK         SUNNY     36  19  50 NW15      30.27S WCI  27
LEXINGTON      CLOUDY    36  16  44 NW16      30.22S WCI  26
PAXTON           N/A     37  22  54 NW9         N/A  WCI  30
STAPLETON        N/A     35  14  42 NW5G14      N/A  WCI  31
GOTHENBURG       N/A     36  16  43 NW14        N/A  WCI  27
CALLAWAY         N/A     35  15  44 NW15        N/A  WCI  25
$$

...OBSERVATIONS IN CENTRAL LINCOLN COUNTY AREA...

CITY           SKY/WX    TMP DP  RH WIND       PRES   REMARKS
N.P. AIRPORT   CLOUDY    35  16  45 NW14      30.25S WCI  26
N.P. DOWNTOWN    N/A     36  17  47 NW8G15      N/A  WCI  30
N.P. SOUTHEAST   N/A     37  16  43 N5G12       N/A  WCI  33
N.P. HILLCREST   N/A     36  17  47 NW17G24     N/A  WCI  26
$$

...SOME OBSERVATIONS FROM AROUND THE REGION...

CITY           SKY/WX    TMP DP  RH WIND       PRES   REMARKS
DENVER         PTSUNNY   41  25  53 SE6       30.32R
LARAMIE        SUNNY     38  24  57 NW16      30.35R WCI  29
CHEYENNE       SUNNY     42  24  49 NW18G32   30.31F
SCOTTSBLUFF    CLOUDY    41  28  60 NW12      30.29F
RAPID CITY     CLOUDY    43  13  29 N21G33    30.24S
BISMARCK       CLOUDY    36  18  48 N23G29    30.24R WCI  24
PIERRE         CLOUDY    37  16  42 N18       30.21F WCI  27
WINNER         FAIR      35  18  49 NW20      30.21F WCI  24
SIOUX FALLS    MOCLDY    25  14  63 N20       30.09S WCI  11
OMAHA          PTCLDY    28  18  66 N23G32    30.10R WCI  14
GRAND ISLAND   CLOUDY    35  17  47 NW23G31   30.18R WCI  23
KANSAS CITY    MOCLDY    31  15  52 NW25G37   30.07R WCI  17
WICHITA        PTSUNNY   43  12  28 NW29G38   30.22R
OKLAHOMA CITY  PTSUNNY   47   6  18 N30G38    30.22R
LIBERAL        SUNNY     48  12  23 N25       30.32S
HAYS           MOSUNNY   37  12  35 NW20G29   30.27S WCI  27
GOODLAND       CLOUDY    37  23  56 NW15      30.28S WCI  28
$$




USA.gov is the U.S. government's official web portal to all federal, state and local government web resources and services.